Hourly Data Report for October 02, 2005

TORONTO CITY
ONTARIO

43°40'00.000" N
79°24'00.000" W
112.50 m
6158355
71508
XTO

Download Data

Hourly Data (October 2005)
Hourly Data Report for October 2, 2005
TIME
LST
Temp Definition
°C
Dew Point Definition
°C
Rel Hum Definition
%
Precip. Amount Definition
mm

Wind Dir Definition
10's deg

Wind Spd Definition
km/h
Visibility Definition
km
Stn Press Definition
kPa
Hmdx Definition


Wind Chill Definition


Weather Definition


00:00 13.7 10.4 80   LegendMM LegendMM   101.15     LegendNANA
01:00 12.8 10.3 85   LegendMM LegendMM   101.18     LegendNANA
02:00 13.1 10.9 86   LegendMM LegendMM   101.18     LegendNANA
03:00 12.8 10.8 88   LegendMM LegendMM   101.19     LegendNANA
04:00 12.9 10.9 88   LegendMM LegendMM   101.21     LegendNANA
05:00 12.3 10.6 89   LegendMM LegendMM   101.24     LegendNANA
06:00 12.0 10.3 89   LegendMM LegendMM   101.29     LegendNANA
07:00 12.3 10.7 90   LegendMM LegendMM   101.35     LegendNANA
08:00 14.8 11.6 81   LegendMM LegendMM   101.39     LegendNANA
09:00 16.8 12.6 76   LegendMM LegendMM   101.42     LegendNANA
10:00 18.3 12.8 70   LegendMM LegendMM   101.41     LegendNANA
11:00 19.8 13.6 67   LegendMM LegendMM   101.40     LegendNANA
12:00 21.1 14.1 64   LegendMM LegendMM   101.38 25   LegendNANA
13:00 21.3 14.5 65   LegendMM LegendMM   101.33 25   LegendNANA
14:00 21.3 14.6 66   LegendMM LegendMM   101.32 25   LegendNANA
15:00 20.5 12.3 59   LegendMM LegendMM   101.29     LegendNANA
16:00 20.5 11.9 58   LegendMM LegendMM   101.26     LegendNANA
17:00 19.3 11.9 62   LegendMM LegendMM   101.24     LegendNANA
18:00 17.8 11.8 68   LegendMM LegendMM   101.21     LegendNANA
19:00 17.5 12.4 72   LegendMM LegendMM   101.22     LegendNANA
20:00 17.5 13.1 75   LegendMM LegendMM   101.25     LegendNANA
21:00 16.9 12.8 77   LegendMM LegendMM   101.27     LegendNANA
22:00 16.8 13.1 79   LegendMM LegendMM   101.27     LegendNANA
23:00 16.6 13.2 80   LegendMM LegendMM   101.25     LegendNANA

Notes on Data Quality.

Legend

  • E = Estimated
  • M = Missing
  • NA = Not Available*
  • [empty] = Indicates an unobserved value
Date modified: